User: anonymous   Login
Location: ??
(35.5052°N, 139.7262°E)
Time: 15:45:28
(UTC+00:00)
Language:

Cosmos 1933 - Orbit

View from above orbital plane
View from above orbital plane
View from above satellite
View from above satellite

Ground track
Ground track

The orbit data is extracted from the following two-line orbital elements,

1 18958U 88020A   21264.63425050  .00000121  00000-0  66618-5 0  9995
2 18958  82.5304  40.1634 0012166  29.7290 330.4625 15.03999001804392
Epoch (UTC): 21 September 2021 15:13:19
Eccentricity: 0.0012166
inclination: 82.5304°
perigee height: 546 km
apogee height: 563 km
right ascension of ascending node: 40.1634°
argument of perigee: 29.7290°
revolutions per day: 15.03999001
mean anomaly at epoch: 330.4625°
orbit number at epoch: 80439

The dashed part of the orbit path shows where the satellite is in the earth's shadow,  

DLR